| time (UTC) | temp F | wind direction | speed MPH | gust MPH | rain 1hr in | rain 24hr in | rain mn in | humidity % | barometer mb |
| 20260507140018 | 55 | 286 | 4.0 | 10.0 | 0.00 | 0.08 | 0.00 | 53 | 1010.6 |
| 20260507134516 | 55 | 311 | 3.0 | 10.0 | 0.00 | 0.14 | 0.00 | 55 | 1010.9 |
| 20260507133015 | 54 | 264 | 2.0 | 8.0 | 0.00 | 0.14 | 0.00 | 57 | 1011.1 |
| 20260507131523 | 54 | 355 | 5.0 | 10.0 | 0.00 | 0.14 | 0.00 | 61 | 1011.1 |
| 20260507130012 | 53 | 288 | 5.0 | 9.0 | 0.00 | 0.14 | 0.00 | 58 | 1011.0 |
| 20260507124510 | 53 | 301 | 3.0 | 9.0 | 0.00 | 0.17 | 0.00 | 61 | 1011.0 |
| 20260507123009 | 52 | 308 | 5.0 | 9.0 | 0.00 | 0.17 | 0.00 | 64 | 1010.8 |
| 20260507121506 | 52 | 292 | 2.0 | 5.0 | 0.00 | 0.17 | 0.00 | 66 | 1010.7 |
| 20260507120006 | 51 | 277 | 3.0 | 7.0 | 0.00 | 0.18 | 0.00 | 66 | 1010.8 |
| 20260507114505 | 51 | 315 | 2.0 | 5.0 | 0.00 | 0.18 | 0.00 | 68 | 1010.8 |
| 20260507113005 | 51 | 275 | 2.0 | 8.0 | 0.00 | 0.18 | 0.00 | 68 | 1010.9 |
| 20260507111507 | 50 | 297 | 0.0 | 0.0 | 0.00 | 0.18 | 0.00 | 72 | 1010.7 |
| 20260507110002 | 50 | 302 | 0.0 | 0.0 | 0.00 | 0.18 | 0.00 | 70 | 1010.5 |
| 20260507104600 | 50 | 300 | 0.0 | 0.0 | 0.00 | 0.18 | 0.00 | 74 | 1010.2 |
| 20260507103111 | 50 | 292 | 0.0 | 0.0 | 0.00 | 0.18 | 0.00 | 72 | 1010.1 |
| 20260507101601 | 50 | 293 | 0.0 | 0.0 | 0.00 | 0.18 | 0.00 | 77 | 1009.8 |
| 20260507100111 | 50 | 307 | 0.0 | 2.0 | 0.00 | 0.18 | 0.00 | 75 | 1009.7 |
| 20260507094554 | 51 | 308 | 2.0 | 4.0 | 0.00 | 0.18 | 0.00 | 71 | 1009.8 |
| 20260507093057 | 51 | 309 | 1.0 | 5.0 | 0.00 | 0.18 | 0.00 | 67 | 1009.8 |
| 20260507091553 | 51 | 294 | 2.0 | 6.0 | 0.00 | 0.18 | 0.00 | 66 | 1009.8 |
| 20260507090050 | 51 | 348 | 0.0 | 6.0 | 0.00 | 0.18 | 0.00 | 67 | 1009.6 |
| 20260507084550 | 52 | 302 | 3.0 | 6.0 | 0.00 | 0.18 | 0.00 | 65 | 1009.4 |
| 20260507083058 | 52 | 317 | 3.0 | 6.0 | 0.00 | 0.18 | 0.00 | 66 | 1009.1 |
| 20260507081547 | 52 | 305 | 5.0 | 10.0 | 0.00 | 0.18 | 0.00 | 69 | 1009.2 |
| 20260507080042 | 52 | 311 | 4.0 | 10.0 | 0.00 | 0.18 | 0.00 | 73 | 1008.9 |
| 20260507074540 | 52 | 323 | 3.0 | 8.0 | 0.00 | 0.18 | 0.00 | 73 | 1008.9 |
| 20260507073050 | 52 | 302 | 2.0 | 4.0 | 0.00 | 0.18 | 0.00 | 75 | 1009.0 |
| 20260507071537 | 52 | 295 | 2.0 | 8.0 | 0.00 | 0.18 | 0.00 | 76 | 1009.0 |
| 20260507070040 | 52 | 297 | 3.0 | 5.0 | 0.00 | 0.18 | 0.00 | 78 | 1009.2 |
| 20260507064538 | 53 | 304 | 2.0 | 5.0 | 0.00 | 0.18 | 0.00 | 79 | 1009.3 |
| 20260507063033 | 54 | 323 | 1.0 | 5.0 | 0.00 | 0.18 | 0.00 | 77 | 1009.3 |
| 20260507061529 | 54 | 321 | 5.0 | 10.0 | 0.00 | 0.18 | 0.00 | 74 | 1009.3 |
| 20260507060027 | 54 | 293 | 1.0 | 8.0 | 0.00 | 0.18 | 0.00 | 75 | 1009.2 |
| 20260507054531 | 54 | 321 | 4.0 | 11.0 | 0.00 | 0.18 | 0.00 | 75 | 1009.0 |
| 20260507053024 | 55 | 306 | 3.0 | 9.0 | 0.00 | 0.18 | 0.00 | 76 | 1009.0 |
| 20260507051523 | 55 | 336 | 1.0 | 6.0 | 0.00 | 0.18 | 0.00 | 76 | 1008.9 |
| 20260507050031 | 55 | 309 | 4.0 | 10.0 | 0.00 | 0.18 | 0.00 | 77 | 1008.9 |
| 20260507044523 | 55 | 300 | 2.0 | 9.0 | 0.00 | 0.18 | 0.00 | 79 | 1008.8 |
| 20260507043018 | 55 | 311 | 2.0 | 5.0 | 0.00 | 0.18 | 0.00 | 79 | 1009.0 |
| 20260507041528 | 55 | 304 | 0.0 | 5.0 | 0.00 | 0.18 | 0.00 | 79 | 1008.8 |
| 20260507040015 | 55 | 304 | 2.0 | 7.0 | 0.00 | 0.18 | 0.00 | 79 | 1009.0 |
| 20260507034517 | 55 | 292 | 4.0 | 8.0 | 0.00 | 0.18 | 0.18 | 80 | 1008.9 |
| 20260507033011 | 55 | 281 | 1.0 | 11.0 | 0.00 | 0.18 | 0.18 | 80 | 1008.5 |
| 20260507031511 | 56 | 228 | 0.0 | 6.0 | 0.00 | 0.18 | 0.18 | 80 | 1008.6 |
| 20260507030007 | 56 | 269 | 3.0 | 9.0 | 0.00 | 0.18 | 0.18 | 80 | 1008.8 |
| 20260507024505 | 56 | 331 | 6.0 | 10.0 | 0.00 | 0.18 | 0.18 | 79 | 1008.7 |
| 20260507023001 | 57 | 351 | 3.0 | 11.0 | 0.00 | 0.18 | 0.18 | 80 | 1008.4 |
| 20260507021559 | 57 | 279 | 3.0 | 11.0 | 0.00 | 0.18 | 0.18 | 80 | 1008.3 |
| 20260507020110 | 57 | 314 | 5.0 | 10.0 | 0.00 | 0.18 | 0.18 | 80 | 1008.3 |
| 20260507014605 | 58 | 343 | 1.0 | 7.0 | 0.00 | 0.18 | 0.18 | 80 | 1007.9 |
| 20260507013055 | 58 | 294 | 4.0 | 9.0 | 0.00 | 0.18 | 0.18 | 79 | 1008.1 |
| 20260507011552 | 58 | 306 | 2.0 | 10.0 | 0.00 | 0.18 | 0.18 | 79 | 1008.1 |
| 20260507010048 | 59 | 277 | 4.0 | 11.0 | 0.00 | 0.18 | 0.18 | 79 | 1008.0 |
| 20260507004547 | 59 | 300 | 4.0 | 12.0 | 0.00 | 0.18 | 0.18 | 79 | 1008.2 |
| 20260507003044 | 60 | 321 | 4.0 | 10.0 | 0.00 | 0.18 | 0.18 | 79 | 1008.0 |
| 20260507001545 | 60 | 282 | 6.0 | 11.0 | 0.00 | 0.18 | 0.18 | 80 | 1007.7 |
| 20260507000041 | 60 | 290 | 0.0 | 4.0 | 0.00 | 0.18 | 0.18 | 82 | 1007.7 |
| 20260506234540 | 60 | 273 | 2.0 | 6.0 | 0.00 | 0.18 | 0.18 | 79 | 1007.3 |
| 20260506233035 | 61 | 286 | 2.0 | 4.0 | 0.00 | 0.18 | 0.18 | 81 | 1006.7 |
| 20260506231545 | 61 | 293 | 4.0 | 11.0 | 0.00 | 0.18 | 0.18 | 80 | 1006.5 |
| 20260506230045 | 62 | 298 | 2.0 | 11.0 | 0.00 | 0.18 | 0.18 | 81 | 1006.4 |
| 20260506224532 | 62 | 273 | 4.0 | 7.0 | 0.00 | 0.18 | 0.18 | 83 | 1006.2 |
| 20260506223045 | 63 | 293 | 3.0 | 8.0 | 0.00 | 0.18 | 0.18 | 85 | 1006.0 |
| 20260506221531 | 64 | 305 | 2.0 | 7.0 | 0.01 | 0.18 | 0.18 | 88 | 1005.9 |
| 20260506220032 | 65 | 163 | 0.0 | 3.0 | 0.01 | 0.18 | 0.18 | 89 | 1005.7 |
| 20260506214530 | 65 | 166 | 2.0 | 6.0 | 0.01 | 0.18 | 0.18 | 88 | 1005.7 |
| 20260506213031 | 65 | 196 | 3.0 | 6.0 | 0.01 | 0.18 | 0.18 | 87 | 1005.3 |
| 20260506211539 | 66 | 171 | 2.0 | 4.0 | 0.00 | 0.17 | 0.17 | 86 | 1005.3 |
| 20260506210034 | 67 | 172 | 2.0 | 5.0 | 0.00 | 0.17 | 0.17 | 85 | 1004.9 |
| 20260506204529 | 67 | 160 | 1.0 | 8.0 | 0.00 | 0.17 | 0.17 | 83 | 1004.7 |
| 20260506203030 | 68 | 182 | 3.0 | 11.0 | 0.00 | 0.17 | 0.17 | 84 | 1004.6 |
| 20260506201534 | 68 | 169 | 4.0 | 8.0 | 0.00 | 0.17 | 0.17 | 83 | 1004.5 |
| 20260506200027 | 69 | 161 | 5.0 | 8.0 | 0.00 | 0.17 | 0.17 | 83 | 1004.6 |
| 20260506194528 | 68 | 245 | 2.0 | 6.0 | 0.00 | 0.17 | 0.17 | 83 | 1004.6 |
| 20260506193022 | 67 | 210 | 4.0 | 8.0 | 0.00 | 0.17 | 0.17 | 85 | 1004.6 |
| 20260506191543 | 67 | 186 | 2.0 | 5.0 | 0.00 | 0.17 | 0.17 | 87 | 1004.6 |
| 20260506190020 | 66 | 192 | 0.0 | 6.0 | 0.00 | 0.17 | 0.17 | 88 | 1004.7 |
| 20260506184518 | 65 | 161 | 3.0 | 7.0 | 0.00 | 0.17 | 0.17 | 89 | 1005.0 |
| 20260506183027 | 65 | 167 | 5.0 | 9.0 | 0.00 | 0.17 | 0.17 | 87 | 1005.2 |
| 20260506181519 | 65 | 183 | 3.0 | 7.0 | 0.00 | 0.17 | 0.17 | 87 | 1005.2 |
| 20260506180016 | 65 | 177 | 5.0 | 10.0 | 0.00 | 0.17 | 0.17 | 86 | 1005.1 |
| 20260506174514 | 66 | 174 | 3.0 | 9.0 | 0.00 | 0.17 | 0.17 | 85 | 1005.0 |
| 20260506173012 | 65 | 173 | 3.0 | 9.0 | 0.00 | 0.17 | 0.17 | 86 | 1004.9 |
| 20260506171515 | 64 | 165 | 2.0 | 12.0 | 0.00 | 0.17 | 0.17 | 86 | 1004.9 |
| 20260506170013 | 64 | 189 | 3.0 | 13.0 | 0.00 | 0.17 | 0.17 | 87 | 1004.8 |
| 20260506164512 | 64 | 141 | 3.0 | 10.0 | 0.00 | 0.17 | 0.17 | 87 | 1004.9 |
| 20260506163013 | 64 | 141 | 6.0 | 12.0 | 0.00 | 0.17 | 0.17 | 87 | 1004.9 |
| 20260506161512 | 63 | 177 | 3.0 | 7.0 | 0.00 | 0.17 | 0.17 | 89 | 1004.9 |
| 20260506160010 | 63 | 161 | 4.0 | 12.0 | 0.00 | 0.17 | 0.17 | 88 | 1005.0 |
| 20260506154509 | 63 | 134 | 7.0 | 14.0 | 0.00 | 0.17 | 0.17 | 88 | 1005.0 |
| 20260506153010 | 63 | 163 | 4.0 | 16.0 | 0.01 | 0.17 | 0.17 | 89 | 1004.8 |
| 20260506151510 | 63 | 142 | 6.0 | 14.0 | 0.03 | 0.17 | 0.17 | 89 | 1004.7 |
| 20260506150005 | 62 | 178 | 3.0 | 8.0 | 0.07 | 0.17 | 0.17 | 91 | 1004.8 |
| 20260506144505 | 61 | 155 | 5.0 | 11.0 | 0.08 | 0.17 | 0.17 | 90 | 1004.7 |
| 20260506143001 | 61 | 150 | 3.0 | 10.0 | 0.10 | 0.16 | 0.16 | 90 | 1005.1 |
| 20260506141501 | 60 | 182 | 3.0 | 11.0 | 0.08 | 0.14 | 0.14 | 89 | 1005.6 |